Regional Weather Roundup
Issued by NWS Charleston, WV

Home | Current Version | Previous Version | Graphics & Text | Print | Product List | Glossary On
Versions: 1 2 3 4 5 6 7 8 9 10 11 12 13 14 15 16 17 18 19 20 21 22 23 24 25 26 27 28 29 30 31 32 33 34 35 36 37 38 39 40 41 42 43 44 45 46 47 48 49 50
000
ASUS41 KRLX 172110
RWRRLX
West Virginia Regional Weather Roundup
National Weather Service Charleston WV
500 PM EDT FRI APR 17 2015

Note: "fair" indicates few or no clouds below 12,000 feet with no
significant weather and/or obstructions to visibility.

WVZ003-172200-
Northern Panhandle of West Virginia

CITY           SKY/WX    TMP DP  RH WIND       PRES   REMARKS
WHEELING       SUNNY     71  50  47 W9        30.01F
$$

WVZ009-172200-
Northwest West Virginia

CITY           SKY/WX    TMP DP  RH WIND       PRES   REMARKS
PARKERSBURG    MOSUNNY   76  53  44 VRB6      30.03F
$$

WVZ006-172200-
Western West Virginia

CITY           SKY/WX    TMP DP  RH WIND       PRES   REMARKS
HUNTINGTON     PTSUNNY   73  57  57 CALM      30.00F
$$

WVZ015-172200-
West Central West Virginia

CITY           SKY/WX    TMP DP  RH WIND       PRES   REMARKS
CHARLESTON     PTSUNNY   75  54  47 W7        30.01F
$$

WVZ022-031-172200-
North Central West Virginia

CITY           SKY/WX    TMP DP  RH WIND       PRES   REMARKS
CLARKSBURG     MOSUNNY   66  59  78 S6        30.03F
MORGANTOWN     PTSUNNY   70  53  54 SW6       30.02F
$$

WVZ025-035-042-045-172200-
Southern West Virginia

CITY           SKY/WX    TMP DP  RH WIND       PRES   REMARKS
BECKLEY        CLOUDY    71  51  49 NW9       30.05F
LOGAN            N/A     73  55  53 CALM      30.00F
BLUEFIELD      PTSUNNY   75  45  34 NW10      30.07F
LEWISBURG      PTSUNNY   74  50  43 W6        30.04F
$$

WVZ047-172200-
Northern Mountains of West Virginia

CITY           SKY/WX    TMP DP  RH WIND       PRES   REMARKS
ELKINS         CLOUDY    63  56  78 NW3       30.07F
$$

WVZ052-172200-
Eastern Panhandle of West Virginia

CITY           SKY/WX    TMP DP  RH WIND       PRES   REMARKS
MARTINSBURG    PTSUNNY   74  55  51 NW7       29.96F
PETERSBURG     PTSUNNY   73  52  47 NW8       30.00S
$$


USA.gov is the U.S. government's official web portal to all federal, state and local government web resources and services.